Location: Bad Rothenbrunn
(47.2167°N, 11.2167°E)
Time: 17:59:41
(UTC+00:00)

FALCON 9 DEB - Pass Details

Date: 03 March 2021
Orbit: 424 x 435 km, 53.0° (Epoch: 19 April)

Event Time Altitude Azimuth Distance (km) Brightness Sun altitude
Rises 18:15:46 0° 298° (WNW) 2,408 8.2 -13.1°
Reaches altitude 10° 18:17:54 10° 300° (WNW) 1,535 7.0 -13.4°
Maximum altitude 18:21:20 78° 26° (NNE) 444 3.0 -14.0°
Enters shadow 18:23:00 28° 110° (ESE) 834 4.0 -14.3°
